Powrót do katalogu

FENGYUN 1C DEB

AktywnyPO
NORAD 33689·DEBRIS·🇨🇳 China

Wystrzelony May 10, 1999 z Taiyuan Satellite Launch Center

Loading…

Następne Przeloty (najbliższe 24 godziny)

TLE

ŚwieżeSource: Space-Track

Epoka: Sep 13, 2026, 09:30 UTC

1 33689U 99025DGA 26256.39639072  .00001857  00000-0  52020-3 0  9997
2 33689  99.5467 303.3956 0047658  68.9262 358.3669 14.46840511735002

Śledź FENGYUN 1C DEB w czasie rzeczywistym z AllMySat

Download on the App Store